Starlink 11531

operational
NORAD ID: 62841 Int'l Des: 2025-019 Owner: SPXS Country: US Constellation: starlink
LEOCIRCULAR

Über Starlink 11531

Beschreibung wird geladen...

Live-Position

3D-Globus wird geladen...

Nächste Überflüge

Höhenverlauf

Altitude vs Time

uPlot chart will show altitude changes over time

Zweizeiliger Elementsatz

1 62841U 25019N 25303.24662598 .00218477 00000-0 16551-2 0 9992
2 62841 42.9982 12.4078 0001395 305.2559 54.8178 15.70935342 43364
Epoch: 30. Okt. 2025 • Age: 16 hours

Aktueller Status

Höhe 355.6 km
Geschwindigkeit 7.70 km/s
Subsatellitenpunkt 19.81°N, 159.17°E
Startdatum 27. Jan. 2025
Alter 0.7 years
Typ internet

Technische Details

Klassifizierung Payload
Masse 960.00 kg
Trockenmasse 910.00 kg
Gesamtmasse 960.00 kg
Länge 0.30 m
Durchmesser 4.10 m
Spannweite 29.00 m
Form Box + pan
Hersteller SPXS
Bus-Typ Starlink V2MD
Phasenstatus In Orbit
Besitzer/Staat SPXS/US

Große Konstellationen

Loading constellations...